Location: Newark
(35.8833°N, 14.5000°E)
Time: 01:55:29
(UTC+00:00)

Altair - Pass Details

Date: 21 November 2019
Orbit: 1502 x 1682 km, 47.2° (Epoch: 14 December)

Event Time Altitude Azimuth Distance (km) Brightness Sun altitude
Rises 05:17:18 0° 295° (WNW) 4,634 - -5.8°
Exits shadow 05:19:11 - 298° (WNW) 4,057 9.0 -5.4°
Reaches altitude 10° 05:20:32 10° 301° (WNW) 3,657 8.8 -5.2°
Maximum altitude 05:29:15 45° 13° (NNE) 1,974 8.1 -3.5°
Drops below altitude 10° 05:38:12 10° 84° (E) 3,742 10.7 -1.9°
Sets 05:41:31 0° 91° (E) 4,750 11.6 -1.3°
